This demonstration page uses our WeatherBlox Daily Observations layout. Learn more.

Left ArrowRight Arrow

Hourly Observations for March 31, 2015

Temp ( °F °C ) Dew Point ( °F °C ) Humidity (%) Winds ( mph kmh ) Pressure ( in mb ) Visibility ( mi km ) Precip ( " mm )
12:51 am 00:51 Mostly Clear 71 21.7 25 -3.9 18 18 N 13 20 29.86 1011 10 16 0.00 0.00
1:51 am 01:51 Clear 74 23.3 24 -4.4 15 15 Calm 29.86 1011 10 16 0.00 0.00
2:51 am 02:51 Mostly Clear 70 21.1 26 -3.3 19 19 NE 7 11 29.85 1011 10 16 0.00 0.00
3:51 am 03:51 Mostly Clear 65 18.3 28 -2.2 25 25 NW 5 7 29.87 1012 10 16 0.00 0.00
4:51 am 04:51 Mostly Clear 63 17.2 30 -1.1 29 29 E 3 6 29.88 1012 10 16 0.00 0.00
5:51 am 05:51 Clear 61 16.1 29 -1.7 30 30 ESE 5 7 29.89 1012 10 16 0.00 0.00
6:51 am 06:51 Sunny 59 15 30 -1.1 33 33 Calm 29.92 1013 10 16 0.00 0.00
7:51 am 07:51 Sunny 66 18.9 31 -0.6 27 27 WSW 5 7 29.93 1014 10 16 0.00 0.00
8:51 am 08:51 Sunny 71 21.7 29 -1.7 21 21 Calm 29.94 1014 10 16 0.00 0.00
9:51 am 09:51 Sunny 74 23.3 28 -2.2 18 18 Calm 29.92 1013 10 16 0.00 0.00
10:51 am 10:51 Sunny 80 26.7 28 -2.2 15 15 NW 3 6 29.89 1012 10 16 0.00 0.00
11:51 am 11:51 Sunny 84 28.9 25 -3.9 11 11 WNW 9 15 29.86 1011 10 16 0.00 0.00
12:51 pm 12:51 Sunny 86 30 26 -3.3 11 11 WNW 12 19 29.82 1010 10 16 0.00 0.00
1:51 pm 13:51 Sunny 88 31.1 26 -3.3 10 10 W 12 19 29.77 1008 10 16 0.00 0.00
2:51 pm 14:51 Sunny 89 31.7 24 -4.4 9 9 NW 10 17 29.73 1007 10 16 0.00 0.00
3:51 pm 15:51 Sunny 87 30.6 28 -2.2 12 12 WNW 14 22 29.72 1007 10 16 0.00 0.00
4:51 pm 16:51 Sunny 86 30 27 -2.8 12 12 WNW 17 28 29.72 1006 10 16 0.00 0.00
5:51 pm 17:51 Sunny 84 28.9 27 -2.8 12 12 WNW 18 30 29.72 1007 10 16 0.00 0.00
6:51 pm 18:51 Clear 78 25.6 28 -2.2 16 16 WNW 12 19 29.75 1008 10 16 0.00 0.00
7:51 pm 19:51 Clear 74 23.3 29 -1.7 19 19 NW 10 17 29.77 1008 10 16 0.00 0.00
8:51 pm 20:51 Clear 72 22.2 28 -2.2 19 19 NW 12 19 29.79 1009 10 16 0.00 0.00
9:51 pm 21:51 Clear 68 20 29 -1.7 23 23 NW 10 17 29.80 1009 10 16 0.00 0.00
10:51 pm 22:51 Clear 64 17.8 29 -1.7 27 27 NW 10 17 29.80 1009 10 16 0.00 0.00
11:51 pm 23:51 Clear 66 18.9 30 -1.1 26 26 VRB 6 9 29.81 1010 10 16 0.00 0.00

Powered by AerisWeather